Terminal Aerodrome Forecast
Issued by NWS Boise, ID

Home | Current Version | Previous Version | Text Only | Print | Product List | Glossary On
Versions: 1 2 3 4 5 6 7 8 9 10 11 12 13 14 15 16 17 18 19 20 21 22 23 24 25 26 27 28 29 30 31 32 33
000
FTUS45 KBOI 050521
TAFBOI
TAF
KBOI 050521Z 0506/0606 31008KT P6SM SCT100
     FM051500 31010KT P6SM VCSH BKN050
     FM060000 VRB04KT P6SM SCT060=

USA.gov is the U.S. government's official web portal to all federal, state and local government web resources and services.